星链-4675 (STARLINK-4675 )

导读 | 星芒AI

STARLINK-4675 是 SpaceX Starlink 卫星互联网项目中的一颗低轨卫星,属于“星链”计划的组成部分。该卫星由 SpaceX 制造并发射,旨在为全球提供高速、低延迟的宽带互联网服务,尤其服务于网络基础设施薄弱的地区。它运行在约 550 公里的轨道高度,采用先进的通信技术,支持全球范围内的数据传输。STARLINK-4675 的部署有助于扩大 Starlink 网络的覆盖范围和稳定性,提升用户的在线体验。

基本信息
目录编号:
53601
目录名称:
STARLINK-4675
国际标识:
2022-104P
轨道中心:
EARTH
卫星名称:
星链-4675
卫星全名:
星链-4675 (STARLINK-4675 )
卫星状态:
在轨 (已飞行1211 天)
发射日期:
2022-08-28 UTC
国别 :
美国 (US)
星等 :
--
轨道信息
数据来源 国际轨道数据 AOE轨道数据
星历时间 2025-12-21T07:24:00+0800
9小时前
查看轨道信息
2025-12-19T09:00:00+0800
2天前
查看轨道信息
半长轴 6917.882km 6917.814km
偏心率 0.0001443 0.0001572
轨道倾角 53.217° 53.215°
近地点辐角 89.869° 98.926°
升交点赤经 237.340° 246.020°
平近点角 270.247° 193.947°
近地点 538.746km 538.591km
远地点 540.744km 540.767km
周期 95.438分钟 95.436分钟
每日圈数 15.088395 15.088618
详细信息
固有亮度:
5
最大亮度:
2.5
卫星平台:
Starlink v1.5
覆盖范围:
全球
运营商:
太空探索技术公司
运营商所在国:
美国
制造商(研发单位):
太空探索技术公司
制造商所在国:
美国
使用方式:
暂无
卫星简介
星链(Starlink)计划是由太空探索技术公司(SpaceX)提出的一个巨型低轨卫星互联网星座项目,计划在2019年至2024年间在太空搭建由约1.2万颗卫星组成的“星链”网络,其中1584颗将部署在地球上空550千米处的近地轨道,并从2020年开始工作。该卫星仍在工作。
2D轨道图
3D轨道图
轨道高度分析图
轨道倾角分析图
轨道综合分析图
查看轨道综合分析图